Time,TemperatureF,DewpointF,PressureIn,WindDirection,WindDirectionDegrees,WindSpeedMPH,WindSpeedGustMPH,Humidity,HourlyPrecipIn,Conditions,Clouds,dailyrainin,SoftwareType,DateUTC
2013-08-06 00:01:00,66.0,61.7,29.96,SSE,152,2.0,4.0,86,0.00,,,0.00,meteohub,2013-08-06 04:01:00,
2013-08-06 00:02:00,66.0,61.7,29.96,SSE,148,3.0,4.0,86,0.00,,,0.00,meteohub,2013-08-06 04:02:00,
2013-08-06 00:03:00,66.0,61.7,29.96,East,101,2.0,4.0,86,0.00,,,0.00,meteohub,2013-08-06 04:03:00,
2013-08-06 00:04:00,66.0,62.1,29.96,ESE,116,3.0,4.0,87,0.00,,,0.00,meteohub,2013-08-06 04:04:00,
2013-08-06 00:09:00,65.8,61.9,29.95,SE,125,3.0,3.0,87,0.00,,,0.00,meteohub,2013-08-06 04:09:00,
2013-08-06 00:14:00,66.0,62.1,29.95,SE,127,3.0,3.0,87,0.00,,,0.00,meteohub,2013-08-06 04:14:00,
2013-08-06 00:20:00,66.0,62.1,29.95,ESE,121,4.0,4.0,87,0.00,,,0.00,meteohub,2013-08-06 04:20:00,
2013-08-06 00:25:00,66.0,62.1,29.95,ESE,110,2.0,6.0,87,0.00,,,0.00,meteohub,2013-08-06 04:25:00,
2013-08-06 00:30:00,66.2,62.6,29.95,SE,142,3.0,6.0,88,0.00,,,0.00,meteohub,2013-08-06 04:30:00,
2013-08-06 00:35:00,66.2,62.6,29.95,SE,134,4.0,6.0,88,0.00,,,0.00,meteohub,2013-08-06 04:35:00,
2013-08-06 00:41:00,66.2,62.6,29.95,ESE,115,3.0,4.0,88,0.00,,,0.00,meteohub,2013-08-06 04:41:00,
2013-08-06 00:46:00,66.0,62.4,29.95,SE,136,3.0,5.0,88,0.00,,,0.00,meteohub,2013-08-06 04:46:00,
2013-08-06 00:51:00,66.0,62.4,29.95,SE,134,3.0,5.0,88,0.00,,,0.00,meteohub,2013-08-06 04:51:00,
2013-08-06 00:56:00,65.8,62.2,29.95,SSE,150,1.0,5.0,88,0.00,,,0.00,meteohub,2013-08-06 04:56:00,
2013-08-06 01:01:00,65.8,62.4,29.95,SSE,150,1.0,4.0,89,0.00,,,0.00,meteohub,2013-08-06 05:01:00,
2013-08-06 01:07:00,65.7,62.2,29.95,SE,145,4.0,4.0,89,0.00,,,0.00,meteohub,2013-08-06 05:07:00,
2013-08-06 01:12:00,65.7,62.6,29.95,SE,132,5.0,5.0,90,0.02,,,0.02,meteohub,2013-08-06 05:12:00,
2013-08-06 01:17:00,65.7,63.0,29.94,SE,125,5.0,7.0,91,0.02,,,0.02,meteohub,2013-08-06 05:17:00,
2013-08-06 01:22:00,65.5,62.8,29.94,SE,127,2.0,7.0,91,0.03,,,0.03,meteohub,2013-08-06 05:22:00,
2013-08-06 01:27:00,65.1,62.8,29.94,ESE,107,3.0,7.0,92,0.03,,,0.03,meteohub,2013-08-06 05:27:00,
2013-08-06 01:32:00,64.9,62.6,29.94,SE,131,3.0,6.0,92,0.03,,,0.03,meteohub,2013-08-06 05:32:00,
2013-08-06 01:37:00,64.8,62.4,29.94,SE,131,6.0,6.0,92,0.03,,,0.03,meteohub,2013-08-06 05:37:00,
2013-08-06 01:42:00,64.8,62.4,29.94,ESE,120,7.0,8.0,92,0.03,,,0.03,meteohub,2013-08-06 05:42:00,
2013-08-06 01:47:00,64.8,62.4,29.94,SE,138,5.0,8.0,92,0.03,,,0.03,meteohub,2013-08-06 05:47:00,
2013-08-06 01:52:00,64.8,62.6,29.93,SE,136,7.0,8.0,93,0.03,,,0.03,meteohub,2013-08-06 05:52:00,
2013-08-06 01:57:00,64.8,62.6,29.93,ESE,113,4.0,8.0,93,0.03,,,0.03,meteohub,2013-08-06 05:57:00,
2013-08-06 02:02:00,64.8,62.6,29.93,SE,124,4.0,8.0,93,0.03,,,0.03,meteohub,2013-08-06 06:02:00,
2013-08-06 02:07:00,64.6,62.4,29.93,SE,128,5.0,7.0,93,0.03,,,0.03,meteohub,2013-08-06 06:07:00,
2013-08-06 02:12:00,64.6,62.4,29.92,SE,136,6.0,8.0,93,0.01,,,0.03,meteohub,2013-08-06 06:12:00,
2013-08-06 02:17:00,64.8,62.6,29.92,SE,124,6.0,8.0,93,0.00,,,0.03,meteohub,2013-08-06 06:17:00,
2013-08-06 02:22:00,64.8,62.4,29.92,SE,125,6.0,9.0,92,0.00,,,0.03,meteohub,2013-08-06 06:22:00,
2013-08-06 02:27:00,64.9,62.6,29.92,SE,138,6.0,9.0,92,0.00,,,0.03,meteohub,2013-08-06 06:27:00,
2013-08-06 02:32:00,65.1,62.8,29.92,SE,142,4.0,9.0,92,0.00,,,0.03,meteohub,2013-08-06 06:32:00,
2013-08-06 02:37:00,65.1,62.8,29.92,ESE,116,6.0,8.0,92,0.00,,,0.03,meteohub,2013-08-06 06:37:00,
2013-08-06 02:42:00,65.1,62.8,29.91,SE,139,5.0,8.0,92,0.00,,,0.03,meteohub,2013-08-06 06:42:00,
2013-08-06 02:47:00,65.1,62.8,29.92,SE,131,4.0,8.0,92,0.00,,,0.03,meteohub,2013-08-06 06:47:00,
2013-08-06 02:52:00,65.1,62.8,29.92,SE,136,4.0,8.0,92,0.00,,,0.03,meteohub,2013-08-06 06:52:00,
2013-08-06 02:57:00,65.3,63.0,29.92,SE,136,3.0,8.0,92,0.00,,,0.03,meteohub,2013-08-06 06:57:00,
2013-08-06 03:02:00,65.5,63.1,29.92,SE,141,4.0,7.0,92,0.00,,,0.03,meteohub,2013-08-06 07:02:00,
2013-08-06 03:07:00,65.5,63.1,29.91,SE,146,12.0,12.0,92,0.00,,,0.03,meteohub,2013-08-06 07:07:00,
2013-08-06 03:12:00,65.7,63.0,29.92,SSE,149,7.0,12.0,91,0.00,,,0.03,meteohub,2013-08-06 07:12:00,
2013-08-06 03:17:00,65.7,63.0,29.92,SE,130,5.0,12.0,91,0.00,,,0.03,meteohub,2013-08-06 07:17:00,
2013-08-06 03:22:00,65.7,63.0,29.92,South,180,4.0,12.0,91,0.00,,,0.03,meteohub,2013-08-06 07:22:00,
2013-08-06 03:27:00,65.7,63.0,29.92,South,172,7.0,8.0,91,0.00,,,0.03,meteohub,2013-08-06 07:27:00,
2013-08-06 03:32:00,65.5,62.8,29.92,SW,215,6.0,8.0,91,0.00,,,0.03,meteohub,2013-08-06 07:32:00,
2013-08-06 03:37:00,65.5,62.8,29.92,South,188,7.0,9.0,91,0.00,,,0.03,meteohub,2013-08-06 07:37:00,
2013-08-06 03:42:00,65.5,62.8,29.92,South,186,3.0,9.0,91,0.00,,,0.03,meteohub,2013-08-06 07:42:00,
2013-08-06 03:47:00,65.5,62.8,29.93,SE,135,3.0,9.0,91,0.00,,,0.03,meteohub,2013-08-06 07:47:00,
2013-08-06 03:52:00,65.5,62.8,29.93,South,184,6.0,9.0,91,0.00,,,0.03,meteohub,2013-08-06 07:52:00,
2013-08-06 03:57:00,65.3,62.6,29.92,South,175,5.0,8.0,91,0.00,,,0.03,meteohub,2013-08-06 07:57:00,
2013-08-06 04:02:00,65.3,62.6,29.92,South,174,5.0,8.0,91,0.00,,,0.03,meteohub,2013-08-06 08:02:00,
2013-08-06 04:07:00,65.3,62.6,29.92,SW,233,7.0,8.0,91,0.00,,,0.03,meteohub,2013-08-06 08:07:00,
2013-08-06 04:12:00,65.1,62.4,29.92,SSE,152,3.0,8.0,91,0.00,,,0.03,meteohub,2013-08-06 08:12:00,
2013-08-06 04:17:00,65.1,62.4,29.91,SSW,194,8.0,8.0,91,0.00,,,0.03,meteohub,2013-08-06 08:17:00,
2013-08-06 04:22:00,65.1,62.1,29.91,SW,214,2.0,8.0,90,0.00,,,0.03,meteohub,2013-08-06 08:22:00,
2013-08-06 04:27:00,65.1,62.4,29.91,SSE,166,7.0,8.0,91,0.00,,,0.03,meteohub,2013-08-06 08:27:00,
2013-08-06 04:33:00,64.9,62.2,29.91,South,169,5.0,8.0,91,0.00,,,0.03,meteohub,2013-08-06 08:33:00,
2013-08-06 04:38:00,64.9,62.2,29.91,SSE,165,5.0,8.0,91,0.00,,,0.03,meteohub,2013-08-06 08:38:00,
2013-08-06 04:43:00,64.9,61.9,29.91,SSW,193,2.0,9.0,90,0.00,,,0.03,meteohub,2013-08-06 08:43:00,
2013-08-06 04:48:00,64.9,61.9,29.91,SSE,163,7.0,9.0,90,0.00,,,0.03,meteohub,2013-08-06 08:48:00,
2013-08-06 04:54:00,64.9,61.9,29.91,SSW,201,6.0,9.0,90,0.00,,,0.03,meteohub,2013-08-06 08:54:00,
2013-08-06 04:59:00,64.9,61.9,29.91,SSW,203,5.0,9.0,90,0.00,,,0.03,meteohub,2013-08-06 08:59:00,
2013-08-06 05:04:00,64.9,61.9,29.91,SE,146,4.0,9.0,90,0.00,,,0.03,meteohub,2013-08-06 09:04:00,
2013-08-06 05:09:00,64.9,61.9,29.90,South,177,6.0,9.0,90,0.00,,,0.03,meteohub,2013-08-06 09:09:00,
2013-08-06 05:14:00,64.9,61.9,29.90,SE,146,5.0,9.0,90,0.00,,,0.03,meteohub,2013-08-06 09:14:00,
2013-08-06 05:20:00,64.9,61.9,29.90,SSW,197,3.0,9.0,90,0.00,,,0.03,meteohub,2013-08-06 09:20:00,
2013-08-06 05:25:00,64.8,61.7,29.90,SSE,160,4.0,9.0,90,0.00,,,0.03,meteohub,2013-08-06 09:25:00,
2013-08-06 05:30:00,64.8,62.1,29.90,SSE,155,4.0,9.0,91,0.00,,,0.03,meteohub,2013-08-06 09:30:00,
2013-08-06 05:35:00,64.8,62.1,29.90,South,170,4.0,9.0,91,0.00,,,0.03,meteohub,2013-08-06 09:35:00,
2013-08-06 05:41:00,64.8,62.1,29.90,SSE,155,3.0,9.0,91,0.00,,,0.03,meteohub,2013-08-06 09:41:00,
2013-08-06 05:46:00,64.8,62.1,29.90,SE,124,4.0,9.0,91,0.00,,,0.03,meteohub,2013-08-06 09:46:00,
2013-08-06 05:51:00,64.8,62.1,29.90,South,169,7.0,9.0,91,0.00,,,0.03,meteohub,2013-08-06 09:51:00,
2013-08-06 05:56:00,64.8,62.1,29.89,SSE,158,6.0,8.0,91,0.00,,,0.03,meteohub,2013-08-06 09:56:00,
2013-08-06 06:02:00,64.8,62.1,29.89,SSE,153,7.0,8.0,91,0.00,,,0.03,meteohub,2013-08-06 10:02:00,
2013-08-06 06:07:00,64.8,62.1,29.89,South,183,5.0,9.0,91,0.00,,,0.03,meteohub,2013-08-06 10:07:00,
2013-08-06 06:12:00,64.8,62.1,29.89,South,169,7.0,9.0,91,0.00,,,0.03,meteohub,2013-08-06 10:12:00,
2013-08-06 06:17:00,64.8,62.1,29.89,SSE,158,5.0,9.0,91,0.00,,,0.03,meteohub,2013-08-06 10:17:00,
2013-08-06 06:22:00,64.8,62.1,29.89,SSE,155,5.0,9.0,91,0.00,,,0.03,meteohub,2013-08-06 10:22:00,
2013-08-06 06:28:00,64.8,62.1,29.89,SSE,148,7.0,9.0,91,0.00,,,0.03,meteohub,2013-08-06 10:28:00,
2013-08-06 06:33:00,64.8,62.4,29.88,SSW,197,6.0,10.0,92,0.00,,,0.03,meteohub,2013-08-06 10:33:00,
2013-08-06 06:38:00,64.6,62.2,29.89,South,177,4.0,10.0,92,0.00,,,0.03,meteohub,2013-08-06 10:38:00,
2013-08-06 06:43:00,64.6,62.2,29.89,SSE,165,3.0,10.0,92,0.00,,,0.03,meteohub,2013-08-06 10:43:00,
2013-08-06 06:49:00,64.8,62.4,29.89,SSE,166,8.0,10.0,92,0.00,,,0.03,meteohub,2013-08-06 10:49:00,
2013-08-06 06:54:00,64.8,62.4,29.90,SE,144,5.0,10.0,92,0.00,,,0.03,meteohub,2013-08-06 10:54:00,
2013-08-06 06:59:00,64.8,62.4,29.89,SSE,167,6.0,10.0,92,0.00,,,0.03,meteohub,2013-08-06 10:59:00,
2013-08-06 07:04:00,64.8,62.4,29.90,South,179,4.0,11.0,92,0.00,,,0.03,meteohub,2013-08-06 11:04:00,
2013-08-06 07:09:00,64.8,62.4,29.91,SSW,208,9.0,11.0,92,0.00,,,0.03,meteohub,2013-08-06 11:09:00,
2013-08-06 07:15:00,64.8,62.4,29.91,SSE,164,7.0,9.0,92,0.00,,,0.03,meteohub,2013-08-06 11:15:00,
2013-08-06 07:20:00,64.8,62.4,29.91,SSE,166,4.0,10.0,92,0.00,,,0.03,meteohub,2013-08-06 11:20:00,
2013-08-06 07:25:00,64.6,62.2,29.90,SSE,148,7.0,10.0,92,0.00,,,0.03,meteohub,2013-08-06 11:25:00,
2013-08-06 07:30:00,64.6,62.2,29.90,SSW,208,5.0,9.0,92,0.00,,,0.03,meteohub,2013-08-06 11:30:00,
2013-08-06 07:35:00,64.8,62.6,29.91,SSE,149,7.0,9.0,93,0.00,,,0.03,meteohub,2013-08-06 11:35:00,
2013-08-06 07:40:00,64.8,62.6,29.91,SSE,162,10.0,10.0,93,0.00,,,0.03,meteohub,2013-08-06 11:40:00,
2013-08-06 07:46:00,64.8,62.6,29.91,SE,125,6.0,9.0,93,0.00,,,0.03,meteohub,2013-08-06 11:46:00,
2013-08-06 07:51:00,64.8,62.6,29.91,SSW,203,4.0,11.0,93,0.00,,,0.03,meteohub,2013-08-06 11:51:00,
2013-08-06 07:56:00,64.8,62.6,29.91,SSE,158,5.0,9.0,93,0.00,,,0.03,meteohub,2013-08-06 11:56:00,
2013-08-06 08:01:00,64.8,62.6,29.91,SSE,155,4.0,9.0,93,0.00,,,0.03,meteohub,2013-08-06 12:01:00,
2013-08-06 08:06:00,64.8,62.6,29.91,SSW,194,7.0,8.0,93,0.00,,,0.03,meteohub,2013-08-06 12:06:00,
2013-08-06 08:12:00,64.6,62.4,29.91,South,179,4.0,8.0,93,0.00,,,0.03,meteohub,2013-08-06 12:12:00,
2013-08-06 08:17:00,64.6,62.4,29.91,South,172,4.0,8.0,93,0.00,,,0.03,meteohub,2013-08-06 12:17:00,
2013-08-06 08:22:00,64.8,62.6,29.91,SSE,155,2.0,8.0,93,0.00,,,0.03,meteohub,2013-08-06 12:22:00,
2013-08-06 08:27:00,64.8,62.6,29.91,SSE,149,2.0,8.0,93,0.00,,,0.03,meteohub,2013-08-06 12:27:00,
2013-08-06 08:32:00,64.8,62.6,29.91,South,185,4.0,8.0,93,0.00,,,0.03,meteohub,2013-08-06 12:32:00,
2013-08-06 08:37:00,64.8,62.6,29.91,SSW,207,4.0,8.0,93,0.00,,,0.03,meteohub,2013-08-06 12:37:00,
2013-08-06 08:42:00,64.9,62.8,29.91,South,174,3.0,8.0,93,0.00,,,0.03,meteohub,2013-08-06 12:42:00,
2013-08-06 08:47:00,64.9,62.8,29.91,SSE,163,4.0,7.0,93,0.00,,,0.03,meteohub,2013-08-06 12:47:00,
2013-08-06 08:52:00,65.1,63.0,29.91,SW,216,7.0,7.0,93,0.00,,,0.03,meteohub,2013-08-06 12:52:00,
2013-08-06 08:57:00,65.1,62.8,29.91,South,191,7.0,7.0,92,0.00,,,0.03,meteohub,2013-08-06 12:57:00,
2013-08-06 09:02:00,65.3,63.0,29.91,SSW,210,4.0,8.0,92,0.00,,,0.03,meteohub,2013-08-06 13:02:00,
2013-08-06 09:07:00,65.5,63.1,29.91,SSE,158,3.0,8.0,92,0.00,,,0.03,meteohub,2013-08-06 13:07:00,
2013-08-06 09:12:00,65.7,63.3,29.91,SE,146,3.0,8.0,92,0.00,,,0.03,meteohub,2013-08-06 13:12:00,
2013-08-06 09:17:00,65.8,63.5,29.91,South,172,3.0,8.0,92,0.00,,,0.03,meteohub,2013-08-06 13:17:00,
2013-08-06 09:22:00,65.8,63.5,29.91,SSW,200,3.0,8.0,92,0.00,,,0.03,meteohub,2013-08-06 13:22:00,
2013-08-06 09:27:00,66.0,63.3,29.92,South,184,6.0,8.0,91,0.00,,,0.03,meteohub,2013-08-06 13:27:00,
2013-08-06 09:33:00,66.0,63.3,29.91,SSW,203,3.0,9.0,91,0.00,,,0.03,meteohub,2013-08-06 13:33:00,
2013-08-06 09:38:00,66.4,63.7,29.91,SW,225,8.0,9.0,91,0.00,,,0.03,meteohub,2013-08-06 13:38:00,
2013-08-06 09:43:00,66.6,63.9,29.91,SSE,153,3.0,9.0,91,0.00,,,0.03,meteohub,2013-08-06 13:43:00,
2013-08-06 09:48:00,66.9,64.2,29.91,South,170,7.0,9.0,91,0.00,,,0.03,meteohub,2013-08-06 13:48:00,
2013-08-06 09:53:00,67.3,64.2,29.91,South,169,3.0,10.0,90,0.00,,,0.03,meteohub,2013-08-06 13:53:00,
2013-08-06 09:59:00,67.6,64.6,29.91,SSW,203,7.0,10.0,90,0.00,,,0.03,meteohub,2013-08-06 13:59:00,
2013-08-06 10:04:00,67.6,64.2,29.91,South,170,3.0,10.0,89,0.00,,,0.03,meteohub,2013-08-06 14:04:00,
2013-08-06 10:09:00,68.0,64.6,29.91,SSW,211,6.0,12.0,89,0.00,,,0.03,meteohub,2013-08-06 14:09:00,
2013-08-06 10:14:00,68.2,64.4,29.91,South,177,5.0,12.0,88,0.00,,,0.03,meteohub,2013-08-06 14:14:00,
2013-08-06 10:19:00,68.2,64.8,29.92,SSE,158,5.0,11.0,89,0.00,,,0.03,meteohub,2013-08-06 14:19:00,
2013-08-06 10:25:00,68.0,64.6,29.91,South,169,8.0,11.0,89,0.00,,,0.03,meteohub,2013-08-06 14:25:00,
2013-08-06 10:30:00,68.0,64.6,29.91,SSE,166,4.0,10.0,89,0.00,,,0.03,meteohub,2013-08-06 14:30:00,
2013-08-06 10:35:00,68.2,64.8,29.91,SW,224,6.0,9.0,89,0.00,,,0.03,meteohub,2013-08-06 14:35:00,
2013-08-06 10:40:00,68.4,64.9,29.91,SW,221,8.0,9.0,89,0.00,,,0.03,meteohub,2013-08-06 14:40:00,
2013-08-06 10:45:00,68.4,64.9,29.91,SSW,207,4.0,10.0,89,0.00,,,0.03,meteohub,2013-08-06 14:45:00,
2013-08-06 10:51:00,68.4,64.9,29.91,SE,124,5.0,10.0,89,0.00,,,0.03,meteohub,2013-08-06 14:51:00,
2013-08-06 10:56:00,68.5,65.1,29.91,South,173,4.0,10.0,89,0.00,,,0.03,meteohub,2013-08-06 14:56:00,
2013-08-06 11:01:00,68.7,65.3,29.91,South,187,5.0,10.0,89,0.00,,,0.03,meteohub,2013-08-06 15:01:00,
2013-08-06 11:06:00,69.1,65.3,29.91,SSW,210,4.0,8.0,88,0.00,,,0.03,meteohub,2013-08-06 15:06:00,
2013-08-06 11:11:00,69.3,65.5,29.91,South,170,6.0,9.0,88,0.00,,,0.03,meteohub,2013-08-06 15:11:00,
2013-08-06 11:17:00,69.4,65.7,29.91,South,170,4.0,9.0,88,0.00,,,0.03,meteohub,2013-08-06 15:17:00,
2013-08-06 11:22:00,69.6,65.7,29.91,SW,218,4.0,9.0,87,0.00,,,0.03,meteohub,2013-08-06 15:22:00,
2013-08-06 11:27:00,70.0,66.0,29.90,SSE,160,6.0,9.0,87,0.00,,,0.03,meteohub,2013-08-06 15:27:00,
2013-08-06 11:32:00,70.2,66.0,29.90,South,172,6.0,9.0,87,0.00,,,0.03,meteohub,2013-08-06 15:32:00,
2013-08-06 11:37:00,70.3,66.0,29.91,SSW,204,6.0,9.0,86,0.00,,,0.03,meteohub,2013-08-06 15:37:00,
2013-08-06 11:42:00,70.5,66.2,29.91,SSW,197,6.0,10.0,86,0.00,,,0.03,meteohub,2013-08-06 15:42:00,
2013-08-06 11:47:00,70.5,66.2,29.92,SSW,203,5.0,10.0,86,0.00,,,0.03,meteohub,2013-08-06 15:47:00,
2013-08-06 11:52:00,70.7,66.6,29.92,WSW,250,7.0,9.0,87,0.00,,,0.03,meteohub,2013-08-06 15:52:00,
2013-08-06 11:57:00,70.9,66.7,29.92,SW,226,6.0,9.0,87,0.00,,,0.03,meteohub,2013-08-06 15:57:00,
2013-08-06 12:02:00,70.9,66.6,29.92,SSW,205,3.0,9.0,86,0.00,,,0.03,meteohub,2013-08-06 16:02:00,
2013-08-06 12:07:00,71.1,66.7,29.92,West,277,5.0,9.0,86,0.00,,,0.03,meteohub,2013-08-06 16:07:00,
2013-08-06 12:12:00,71.1,66.7,29.92,WSW,255,5.0,8.0,86,0.00,,,0.03,meteohub,2013-08-06 16:12:00,
2013-08-06 12:17:00,71.2,66.6,29.92,SW,232,10.0,10.0,85,0.00,,,0.03,meteohub,2013-08-06 16:17:00,
2013-08-06 12:22:00,71.2,66.9,29.91,SW,226,7.0,10.0,86,0.00,,,0.03,meteohub,2013-08-06 16:22:00,
2013-08-06 12:27:00,71.4,66.7,29.92,SSW,198,4.0,10.0,85,0.00,,,0.03,meteohub,2013-08-06 16:27:00,
2013-08-06 12:32:00,71.6,67.1,29.91,SW,222,4.0,11.0,86,0.00,,,0.03,meteohub,2013-08-06 16:32:00,
2013-08-06 12:37:00,71.6,66.9,29.91,SW,236,6.0,11.0,85,0.00,,,0.03,meteohub,2013-08-06 16:37:00,
2013-08-06 12:42:00,71.8,67.1,29.91,SSW,212,8.0,9.0,85,0.00,,,0.03,meteohub,2013-08-06 16:42:00,
2013-08-06 12:47:00,71.8,67.1,29.91,WSW,240,6.0,9.0,85,0.00,,,0.03,meteohub,2013-08-06 16:47:00,
2013-08-06 12:52:00,72.0,67.3,29.91,WSW,242,6.0,9.0,85,0.00,,,0.03,meteohub,2013-08-06 16:52:00,
2013-08-06 12:57:00,72.1,67.5,29.91,SW,218,6.0,10.0,85,0.00,,,0.03,meteohub,2013-08-06 16:57:00,
2013-08-06 13:02:00,72.1,67.5,29.91,WSW,245,4.0,10.0,85,0.00,,,0.03,meteohub,2013-08-06 17:02:00,
2013-08-06 13:07:00,72.3,67.6,29.91,WSW,245,7.0,10.0,85,0.00,,,0.03,meteohub,2013-08-06 17:07:00,
2013-08-06 13:12:00,72.1,67.5,29.91,South,180,5.0,10.0,85,0.00,,,0.03,meteohub,2013-08-06 17:12:00,
2013-08-06 13:17:00,72.3,67.3,29.91,SSW,206,6.0,9.0,84,0.00,,,0.03,meteohub,2013-08-06 17:17:00,
2013-08-06 13:22:00,72.5,67.8,29.91,South,176,6.0,9.0,85,0.00,,,0.03,meteohub,2013-08-06 17:22:00,
2013-08-06 13:27:00,72.7,67.6,29.91,SW,224,5.0,8.0,84,0.00,,,0.03,meteohub,2013-08-06 17:27:00,
2013-08-06 13:32:00,72.9,67.8,29.91,SW,218,4.0,8.0,84,0.00,,,0.03,meteohub,2013-08-06 17:32:00,
2013-08-06 13:37:00,72.9,67.8,29.91,SSW,203,3.0,8.0,84,0.00,,,0.03,meteohub,2013-08-06 17:37:00,
2013-08-06 13:42:00,73.0,67.6,29.91,SSW,212,6.0,10.0,83,0.00,,,0.03,meteohub,2013-08-06 17:42:00,
2013-08-06 13:48:00,73.0,68.0,29.90,SW,217,5.0,10.0,84,0.00,,,0.03,meteohub,2013-08-06 17:48:00,
2013-08-06 13:53:00,73.2,67.8,29.90,SSE,158,4.0,11.0,83,0.00,,,0.03,meteohub,2013-08-06 17:53:00,
2013-08-06 13:58:00,73.4,68.2,29.90,WSW,238,2.0,11.0,84,0.00,,,0.03,meteohub,2013-08-06 17:58:00,
2013-08-06 14:03:00,73.4,68.0,29.90,South,179,5.0,10.0,83,0.00,,,0.03,meteohub,2013-08-06 18:03:00,
2013-08-06 14:08:00,73.2,68.2,29.91,SSW,194,5.0,10.0,84,0.00,,,0.03,meteohub,2013-08-06 18:08:00,
2013-08-06 14:14:00,73.2,68.4,29.91,SSW,197,3.0,11.0,85,0.00,,,0.03,meteohub,2013-08-06 18:14:00,
2013-08-06 14:19:00,73.2,68.2,29.90,South,187,7.0,11.0,84,0.00,,,0.03,meteohub,2013-08-06 18:19:00,
2013-08-06 14:24:00,73.0,68.0,29.90,SSW,194,9.0,11.0,84,0.00,,,0.03,meteohub,2013-08-06 18:24:00,
2013-08-06 14:29:00,72.9,68.0,29.90,SW,228,7.0,11.0,85,0.00,,,0.03,meteohub,2013-08-06 18:29:00,
2013-08-06 14:34:00,72.9,68.4,29.90,SW,233,4.0,11.0,86,0.00,,,0.03,meteohub,2013-08-06 18:34:00,
2013-08-06 14:40:00,72.7,67.8,29.90,SSW,208,8.0,11.0,85,0.00,,,0.03,meteohub,2013-08-06 18:40:00,
2013-08-06 14:45:00,72.7,67.8,29.90,SW,231,5.0,10.0,85,0.00,,,0.03,meteohub,2013-08-06 18:45:00,
2013-08-06 14:50:00,72.7,68.2,29.90,SSW,212,6.0,9.0,86,0.00,,,0.03,meteohub,2013-08-06 18:50:00,
2013-08-06 14:55:00,72.7,68.2,29.89,SSE,166,3.0,9.0,86,0.00,,,0.03,meteohub,2013-08-06 18:55:00,
2013-08-06 15:00:00,72.7,68.2,29.89,South,174,5.0,9.0,86,0.00,,,0.03,meteohub,2013-08-06 19:00:00,
2013-08-06 15:06:00,72.9,68.4,29.89,SSW,210,3.0,7.0,86,0.00,,,0.03,meteohub,2013-08-06 19:06:00,
2013-08-06 15:11:00,72.9,68.4,29.89,SSW,200,4.0,7.0,86,0.00,,,0.03,meteohub,2013-08-06 19:11:00,
2013-08-06 15:16:00,73.0,68.5,29.89,SW,224,5.0,7.0,86,0.00,,,0.03,meteohub,2013-08-06 19:16:00,
2013-08-06 15:21:00,73.2,68.7,29.89,SW,234,6.0,7.0,86,0.00,,,0.03,meteohub,2013-08-06 19:21:00,
2013-08-06 15:26:00,73.2,68.4,29.89,SW,228,5.0,11.0,85,0.00,,,0.03,meteohub,2013-08-06 19:26:00,
2013-08-06 15:32:00,73.2,68.4,29.89,SSW,211,4.0,11.0,85,0.00,,,0.03,meteohub,2013-08-06 19:32:00,
2013-08-06 15:37:00,73.2,68.7,29.90,West,264,4.0,12.0,86,0.00,,,0.03,meteohub,2013-08-06 19:37:00,
2013-08-06 15:42:00,73.2,68.7,29.90,SW,236,6.0,13.0,86,0.00,,,0.03,meteohub,2013-08-06 19:42:00,
2013-08-06 15:47:00,73.2,68.7,29.90,WSW,253,10.0,13.0,86,0.00,,,0.03,meteohub,2013-08-06 19:47:00,
2013-08-06 15:52:00,72.9,68.7,29.89,WSW,242,8.0,13.0,87,0.00,,,0.03,meteohub,2013-08-06 19:52:00,
2013-08-06 15:57:00,72.7,68.2,29.90,West,266,7.0,10.0,86,0.00,,,0.03,meteohub,2013-08-06 19:57:00,
2013-08-06 16:02:00,72.3,68.2,29.89,WSW,255,7.0,11.0,87,0.00,,,0.03,meteohub,2013-08-06 20:02:00,
2013-08-06 16:07:00,72.1,68.4,29.89,West,262,4.0,12.0,88,0.00,,,0.03,meteohub,2013-08-06 20:07:00,
2013-08-06 16:12:00,72.1,68.4,29.89,West,270,4.0,12.0,88,0.00,,,0.03,meteohub,2013-08-06 20:12:00,
2013-08-06 16:17:00,72.1,68.4,29.89,SW,236,5.0,12.0,88,0.00,,,0.03,meteohub,2013-08-06 20:17:00,
2013-08-06 16:22:00,72.3,68.5,29.89,WSW,253,7.0,10.0,88,0.00,,,0.03,meteohub,2013-08-06 20:22:00,
2013-08-06 16:27:00,72.7,68.5,29.89,WSW,245,4.0,10.0,87,0.00,,,0.03,meteohub,2013-08-06 20:27:00,
2013-08-06 16:32:00,73.0,68.9,29.89,WSW,242,6.0,10.0,87,0.00,,,0.03,meteohub,2013-08-06 20:32:00,
2013-08-06 16:37:00,73.0,68.9,29.89,SW,226,5.0,9.0,87,0.00,,,0.03,meteohub,2013-08-06 20:37:00,
2013-08-06 16:39:00,73.0,68.5,29.88,SW,231,8.0,9.0,86,0.00,,,0.03,meteohub,2013-08-06 20:39:00,
2013-08-06 16:45:00,72.9,68.4,29.88,WSW,248,9.0,10.0,86,0.00,,,0.03,meteohub,2013-08-06 20:45:00,
2013-08-06 16:50:00,72.9,68.7,29.89,SW,236,4.0,11.0,87,0.00,,,0.03,meteohub,2013-08-06 20:50:00,
2013-08-06 16:52:00,72.9,68.7,29.88,WSW,250,4.0,11.0,87,0.00,,,0.03,meteohub,2013-08-06 20:52:00,
2013-08-06 16:57:00,73.0,68.5,29.88,WSW,245,6.0,11.0,86,0.00,,,0.03,meteohub,2013-08-06 20:57:00,
2013-08-06 17:02:00,73.2,68.7,29.88,SSE,155,6.0,10.0,86,0.00,,,0.03,meteohub,2013-08-06 21:02:00,
2013-08-06 17:07:00,73.8,68.9,29.88,WSW,245,5.0,8.0,85,0.00,,,0.03,meteohub,2013-08-06 21:07:00,
2013-08-06 17:12:00,73.9,68.7,29.88,WSW,256,7.0,10.0,84,0.00,,,0.03,meteohub,2013-08-06 21:12:00,
2013-08-06 17:17:00,73.9,69.1,29.88,West,269,5.0,10.0,85,0.00,,,0.03,meteohub,2013-08-06 21:17:00,
2013-08-06 17:22:00,74.5,69.6,29.88,SW,224,5.0,10.0,85,0.00,,,0.03,meteohub,2013-08-06 21:22:00,
2013-08-06 17:27:00,74.8,69.3,29.88,SSW,205,9.0,11.0,83,0.00,,,0.03,meteohub,2013-08-06 21:27:00,
2013-08-06 17:32:00,75.4,69.8,29.88,SSW,200,7.0,12.0,83,0.00,,,0.03,meteohub,2013-08-06 21:32:00,
2013-08-06 17:37:00,75.7,69.8,29.87,SW,222,7.0,12.0,82,0.00,,,0.03,meteohub,2013-08-06 21:37:00,
2013-08-06 17:42:00,75.7,69.4,29.87,WSW,245,6.0,11.0,81,0.00,,,0.03,meteohub,2013-08-06 21:42:00,
2013-08-06 17:47:00,75.7,69.1,29.88,WSW,250,6.0,11.0,80,0.00,,,0.03,meteohub,2013-08-06 21:47:00,
2013-08-06 17:52:00,76.1,69.4,29.87,WSW,248,4.0,12.0,80,0.00,,,0.03,meteohub,2013-08-06 21:52:00,
2013-08-06 17:57:00,75.7,69.4,29.87,SW,231,4.0,12.0,81,0.00,,,0.03,meteohub,2013-08-06 21:57:00,
2013-08-06 18:02:00,75.9,69.6,29.87,SW,223,8.0,12.0,81,0.00,,,0.03,meteohub,2013-08-06 22:02:00,
2013-08-06 18:07:00,75.9,69.6,29.87,SW,232,3.0,11.0,81,0.00,,,0.03,meteohub,2013-08-06 22:07:00,
2013-08-06 18:12:00,76.1,69.8,29.87,SW,231,3.0,11.0,81,0.00,,,0.03,meteohub,2013-08-06 22:12:00,
2013-08-06 18:17:00,76.5,69.8,29.87,SSW,205,9.0,9.0,80,0.00,,,0.03,meteohub,2013-08-06 22:17:00,
2013-08-06 18:22:00,76.6,69.6,29.87,WSW,248,6.0,10.0,79,0.00,,,0.03,meteohub,2013-08-06 22:22:00,
2013-08-06 18:27:00,76.3,68.9,29.87,WSW,240,3.0,10.0,78,0.00,,,0.03,meteohub,2013-08-06 22:27:00,
2013-08-06 18:32:00,76.3,68.9,29.87,SW,218,9.0,13.0,78,0.00,,,0.03,meteohub,2013-08-06 22:32:00,
2013-08-06 18:37:00,76.6,69.3,29.87,SW,231,7.0,13.0,78,0.00,,,0.03,meteohub,2013-08-06 22:37:00,
2013-08-06 18:42:00,76.5,69.1,29.87,WSW,245,7.0,13.0,78,0.00,,,0.03,meteohub,2013-08-06 22:42:00,
2013-08-06 18:47:00,76.8,69.4,29.87,WSW,253,7.0,11.0,78,0.00,,,0.03,meteohub,2013-08-06 22:47:00,
2013-08-06 18:52:00,76.8,69.4,29.87,SSW,197,5.0,10.0,78,0.00,,,0.03,meteohub,2013-08-06 22:52:00,
2013-08-06 18:57:00,77.2,69.4,29.87,SSW,205,7.0,11.0,77,0.00,,,0.03,meteohub,2013-08-06 22:57:00,
2013-08-06 19:02:00,76.6,69.6,29.87,SSW,208,7.0,12.0,79,0.00,,,0.03,meteohub,2013-08-06 23:02:00,
2013-08-06 19:07:00,76.5,69.4,29.87,SW,228,7.0,12.0,79,0.00,,,0.03,meteohub,2013-08-06 23:07:00,
2013-08-06 19:12:00,76.3,69.6,29.87,WSW,241,4.0,12.0,80,0.00,,,0.03,meteohub,2013-08-06 23:12:00,
2013-08-06 19:17:00,76.3,69.3,29.87,WSW,250,7.0,10.0,79,0.00,,,0.03,meteohub,2013-08-06 23:17:00,
2013-08-06 19:22:00,76.5,69.4,29.87,SW,234,6.0,10.0,79,0.00,,,0.03,meteohub,2013-08-06 23:22:00,
2013-08-06 19:27:00,76.8,69.8,29.87,SSW,207,3.0,10.0,79,0.00,,,0.03,meteohub,2013-08-06 23:27:00,
2013-08-06 19:32:00,77.0,69.6,29.87,SW,226,8.0,9.0,78,0.00,,,0.03,meteohub,2013-08-06 23:32:00,
2013-08-06 19:38:00,77.2,69.8,29.87,SW,231,4.0,11.0,78,0.00,,,0.03,meteohub,2013-08-06 23:38:00,
2013-08-06 19:43:00,77.2,69.8,29.87,WSW,256,4.0,11.0,78,0.00,,,0.03,meteohub,2013-08-06 23:43:00,
2013-08-06 19:48:00,76.6,69.3,29.88,West,281,4.0,9.0,78,0.00,,,0.03,meteohub,2013-08-06 23:48:00,
2013-08-06 19:53:00,76.3,69.3,29.88,SW,219,4.0,9.0,79,0.00,,,0.03,meteohub,2013-08-06 23:53:00,
2013-08-06 19:58:00,76.1,69.4,29.88,WSW,256,3.0,9.0,80,0.00,,,0.03,meteohub,2013-08-06 23:58:00,
2013-08-06 20:04:00,75.7,69.4,29.88,West,263,3.0,6.0,81,0.00,,,0.03,meteohub,2013-08-07 00:04:00,
2013-08-06 20:09:00,75.6,69.3,29.88,WSW,250,2.0,5.0,81,0.00,,,0.03,meteohub,2013-08-07 00:09:00,
2013-08-06 20:14:00,75.4,69.4,29.88,WSW,240,3.0,5.0,82,0.00,,,0.03,meteohub,2013-08-07 00:14:00,
2013-08-06 20:19:00,75.2,69.6,29.87,WSW,242,0.0,4.0,83,0.00,,,0.03,meteohub,2013-08-07 00:19:00,
2013-08-06 20:24:00,75.4,69.8,29.87,WSW,243,0.0,4.0,83,0.00,,,0.03,meteohub,2013-08-07 00:24:00,
2013-08-06 20:30:00,75.2,69.6,29.87,WSW,242,1.0,3.0,83,0.00,,,0.03,meteohub,2013-08-07 00:30:00,
2013-08-06 20:35:00,75.2,69.6,29.87,SSW,200,0.0,1.0,83,0.00,,,0.03,meteohub,2013-08-07 00:35:00,
2013-08-06 20:40:00,75.0,69.4,29.87,SSW,200,0.0,1.0,83,0.00,,,0.03,meteohub,2013-08-07 00:40:00,
2013-08-06 20:45:00,74.8,69.6,29.87,SSW,200,0.0,1.0,84,0.00,,,0.03,meteohub,2013-08-07 00:45:00,
2013-08-06 20:50:00,74.7,69.4,29.87,SE,143,2.0,2.0,84,0.00,,,0.03,meteohub,2013-08-07 00:50:00,
2013-08-06 20:56:00,74.5,69.6,29.87,SSE,158,2.0,3.0,85,0.00,,,0.03,meteohub,2013-08-07 00:56:00,
2013-08-06 21:01:00,74.1,69.3,29.87,SE,136,2.0,3.0,85,0.00,,,0.03,meteohub,2013-08-07 01:01:00,
2013-08-06 21:06:00,73.9,69.1,29.87,SE,132,1.0,3.0,85,0.00,,,0.03,meteohub,2013-08-07 01:06:00,
2013-08-06 21:11:00,73.9,69.4,29.87,ESE,119,3.0,3.0,86,0.00,,,0.03,meteohub,2013-08-07 01:11:00,
2013-08-06 21:16:00,73.8,69.3,29.87,SE,127,3.0,3.0,86,0.00,,,0.03,meteohub,2013-08-07 01:16:00,
2013-08-06 21:21:00,73.8,69.3,29.87,SE,139,3.0,3.0,86,0.00,,,0.03,meteohub,2013-08-07 01:21:00,
2013-08-06 21:27:00,73.6,69.4,29.87,ESE,121,2.0,3.0,87,0.00,,,0.03,meteohub,2013-08-07 01:27:00,
2013-08-06 21:32:00,73.4,69.3,29.87,SE,131,4.0,4.0,87,0.00,,,0.03,meteohub,2013-08-07 01:32:00,
2013-08-06 21:37:00,73.2,69.1,29.87,ESE,116,3.0,4.0,87,0.00,,,0.03,meteohub,2013-08-07 01:37:00,
2013-08-06 21:42:00,73.0,69.3,29.87,ESE,113,3.0,4.0,88,0.00,,,0.03,meteohub,2013-08-07 01:42:00,
2013-08-06 21:47:00,72.7,68.9,29.87,ESE,118,3.0,4.0,88,0.00,,,0.03,meteohub,2013-08-07 01:47:00,
2013-08-06 21:52:00,72.1,68.7,29.87,ESE,121,4.0,4.0,89,0.00,,,0.03,meteohub,2013-08-07 01:52:00,
2013-08-06 21:57:00,72.0,68.9,29.87,SE,125,3.0,4.0,90,0.00,,,0.03,meteohub,2013-08-07 01:57:00,
2013-08-06 22:02:00,71.8,68.7,29.87,ESE,118,5.0,5.0,90,0.00,,,0.03,meteohub,2013-08-07 02:02:00,
2013-08-06 22:07:00,72.0,68.9,29.87,ESE,118,4.0,6.0,90,0.00,,,0.03,meteohub,2013-08-07 02:07:00,
2013-08-06 22:12:00,72.0,68.9,29.87,SE,124,5.0,6.0,90,0.00,,,0.03,meteohub,2013-08-07 02:12:00,
2013-08-06 22:17:00,72.0,68.9,29.87,SE,124,4.0,6.0,90,0.00,,,0.03,meteohub,2013-08-07 02:17:00,
2013-08-06 22:22:00,72.0,68.9,29.87,ESE,113,3.0,6.0,90,0.00,,,0.03,meteohub,2013-08-07 02:22:00,
2013-08-06 22:27:00,71.8,69.1,29.87,ESE,105,4.0,6.0,91,0.00,,,0.03,meteohub,2013-08-07 02:27:00,
2013-08-06 22:32:00,71.6,68.9,29.87,ESE,103,5.0,5.0,91,0.00,,,0.03,meteohub,2013-08-07 02:32:00,
2013-08-06 22:37:00,71.4,68.7,29.87,ESE,110,4.0,5.0,91,0.00,,,0.03,meteohub,2013-08-07 02:37:00,
2013-08-06 22:42:00,71.4,68.9,29.87,ESE,113,2.0,6.0,92,0.00,,,0.03,meteohub,2013-08-07 02:42:00,
2013-08-06 22:47:00,71.6,68.9,29.88,WSW,253,3.0,6.0,91,0.00,,,0.03,meteohub,2013-08-07 02:47:00,
2013-08-06 22:52:00,71.4,68.7,29.88,WSW,239,0.0,6.0,91,0.00,,,0.03,meteohub,2013-08-07 02:52:00,
2013-08-06 22:57:00,71.6,69.1,29.88,SSW,197,6.0,6.0,92,0.00,,,0.03,meteohub,2013-08-07 02:57:00,
2013-08-06 23:02:00,71.8,69.1,29.88,South,189,3.0,9.0,91,0.00,,,0.03,meteohub,2013-08-07 03:02:00,
2013-08-06 23:07:00,72.0,69.3,29.88,South,173,3.0,9.0,91,0.00,,,0.03,meteohub,2013-08-07 03:07:00,
2013-08-06 23:12:00,72.0,69.3,29.87,South,174,4.0,9.0,91,0.00,,,0.03,meteohub,2013-08-07 03:12:00,
2013-08-06 23:17:00,72.0,69.3,29.87,SSE,160,5.0,8.0,91,0.00,,,0.03,meteohub,2013-08-07 03:17:00,
2013-08-06 23:22:00,71.8,69.1,29.87,SSE,158,4.0,8.0,91,0.00,,,0.03,meteohub,2013-08-07 03:22:00,
2013-08-06 23:27:00,71.6,68.9,29.87,South,172,4.0,6.0,91,0.00,,,0.03,meteohub,2013-08-07 03:27:00,
2013-08-06 23:32:00,71.4,68.7,29.86,SSE,155,5.0,6.0,91,0.00,,,0.03,meteohub,2013-08-07 03:32:00,
2013-08-06 23:37:00,71.4,68.7,29.86,SSE,150,2.0,7.0,91,0.00,,,0.03,meteohub,2013-08-07 03:37:00,
2013-08-06 23:42:00,71.4,68.7,29.87,South,169,4.0,7.0,91,0.00,,,0.03,meteohub,2013-08-07 03:42:00,
2013-08-06 23:47:00,71.2,68.5,29.86,SSE,147,2.0,7.0,91,0.00,,,0.03,meteohub,2013-08-07 03:47:00,
2013-08-06 23:52:00,71.1,68.4,29.87,SSE,160,2.0,7.0,91,0.00,,,0.03,meteohub,2013-08-07 03:52:00,
2013-08-06 23:57:00,70.9,68.4,29.86,SSE,158,2.0,6.0,92,0.00,,,0.03,meteohub,2013-08-07 03:57:00,